DateTimeUTC,F1_A11,F1_S11,BsB_S11,BsG_S11,BsR_S11,BbsB_S11,BbsG_S11,BbsR_S11,BaB_A11,BaG_A11,BaR_A11,Tu_S11,T_S11,Uu_S11,U_S11,P_S11,T1_A11
2021-09-03T13:00:00Z,00000200,20000000,,,,,,,0000.06,0000.21,-000.09,20.7,27.2,06.1,04.2,0670.0,31.2
2021-09-03T13:01:00Z,00000200,20000000,,,,,,,0000.10,0000.02,0000.09,20.7,27.2,06.1,04.1,0670.0,31.2
2021-09-03T13:02:00Z,00000200,20000000,,,,,,,-000.02,0000.30,0000.15,20.7,27.2,06.1,04.1,0670.0,31.2
2021-09-03T13:03:00Z,00000200,60000000,,,,,,,0000.05,0000.10,0000.01,20.7,27.2,06.1,04.1,0670.0,31.2
2021-09-03T13:04:00Z,00000200,40000000,-000.66,0000.32,0000.51,-000.03,0000.05,0000.43,-000.08,-000.26,0000.16,20.8,27.1,06.2,04.3,0670.9,31.2
2021-09-03T13:05:00Z,00000200,00000000,0000.23,0000.36,0000.19,-000.26,0000.05,0000.10,0000.18,0000.43,-000.11,20.9,27.0,06.3,04.4,0671.0,31.2
2021-09-03T13:06:00Z,00000200,00000000,-000.09,0000.39,0000.46,-000.38,0000.23,0000.01,0000.01,-000.43,0000.03,20.9,27.0,06.3,04.3,0671.0,31.2
2021-09-03T13:07:00Z,00000200,00000000,-000.62,0000.13,-000.09,-000.40,-000.10,0000.27,0000.29,0000.19,-000.14,20.9,27.0,06.3,04.3,0671.0,31.2
2021-09-03T13:08:00Z,00000200,00000000,0000.13,0000.22,0000.51,-000.07,0000.05,-000.11,-000.38,0000.20,-000.06,20.9,27.0,06.3,04.3,0670.9,31.2
2021-09-03T13:09:00Z,00000200,00000000,0000.07,0000.07,0000.09,-000.08,0000.12,-000.15,0000.28,-000.09,0000.02,20.9,27.0,06.3,04.3,0670.9,31.2
2021-09-03T13:10:00Z,00000200,00000000,-000.04,-000.20,0000.35,-000.22,0000.27,-000.00,0000.03,-000.13,0000.35,20.9,27.0,06.4,04.4,0671.0,31.2
2021-09-03T13:11:00Z,00000200,00000000,0000.33,-000.02,0000.47,0000.37,-000.16,0000.28,0000.04,0000.07,-000.08,20.9,27.0,06.4,04.4,0671.0,31.2
2021-09-03T13:12:00Z,00000200,00000000,0000.09,0000.18,0000.24,-000.00,0000.25,-000.00,-000.08,0000.21,0000.06,20.9,27.0,06.3,04.4,0671.0,31.2
2021-09-03T13:13:00Z,00000200,00000000,0000.48,-000.07,0000.41,0000.19,0000.09,0000.06,0000.30,0000.33,0000.09,20.9,27.0,06.4,04.4,0671.0,31.2
2021-09-03T13:14:00Z,00000200,00000000,-000.31,0000.25,0000.62,0000.39,0000.11,0000.34,-000.18,-000.34,0000.29,20.9,27.0,06.5,04.5,0671.0,31.2
2021-09-03T13:15:00Z,00000200,00000000,0000.53,-000.18,0000.44,-000.25,-000.02,0000.11,0000.29,0000.06,-000.33,20.8,27.0,06.6,04.6,0671.0,31.2
2021-09-03T13:16:00Z,00000200,00000000,0000.07,0000.03,0000.26,0000.59,-000.18,0000.15,-000.33,-000.22,0000.28,20.9,27.0,06.5,04.5,0671.0,31.2
2021-09-03T13:17:00Z,00000200,00000000,-000.05,0000.09,0000.14,-000.25,0000.10,0000.46,0000.38,0000.24,-000.41,20.9,27.0,06.7,04.6,0671.0,31.2
2021-09-03T13:18:00Z,00000200,00000000,0000.16,-000.03,0000.32,0000.13,-000.03,-000.01,-000.16,0000.01,0000.27,20.8,27.0,06.7,04.6,0670.9,31.2
2021-09-03T13:19:00Z,00000200,00000000,0000.66,0000.03,0000.25,0000.05,0000.23,0000.19,0000.24,0000.31,-000.04,20.8,27.0,06.6,04.6,0670.9,31.2
2021-09-03T13:20:00Z,00000200,00000000,-000.66,0000.01,0000.18,0000.13,-000.24,0000.16,-000.11,0000.09,0000.10,20.8,27.0,06.6,04.6,0670.9,31.2
2021-09-03T13:21:00Z,00000200,00000000,0000.87,0000.01,0000.31,0000.27,0000.09,-000.04,-000.07,-000.26,-000.11,20.8,27.0,06.8,04.7,0670.9,31.2
2021-09-03T13:22:00Z,00000200,00000000,0000.51,-000.11,0000.31,0000.09,-000.02,-000.37,0000.04,-000.07,0000.12,20.8,27.0,06.7,04.7,0670.9,31.2
2021-09-03T13:23:00Z,00000200,00000000,0000.10,0000.15,0000.26,-000.01,-000.08,0000.16,0000.09,0000.21,0000.06,20.8,26.9,06.7,04.7,0670.9,31.2
2021-09-03T13:24:00Z,00000200,00000000,0000.21,0000.11,0000.10,-000.29,0000.34,-000.06,0000.22,0000.23,-000.15,20.8,26.9,06.8,04.7,0670.9,31.2
2021-09-03T13:25:00Z,00000200,00000000,0000.46,0000.48,0000.16,-000.08,0000.30,0000.07,0000.08,0000.33,0000.14,20.8,26.9,06.9,04.8,0670.9,31.2
2021-09-03T13:26:00Z,00000200,00000000,-000.09,0000.27,0000.44,0000.13,0000.00,-000.09,-000.09,-000.27,0000.15,20.8,26.9,06.9,04.8,0670.9,31.3
2021-09-03T13:27:00Z,00000200,00000000,0000.27,0000.01,0000.23,0000.05,0000.09,-000.59,0000.26,0000.06,0000.31,20.8,26.9,07.0,04.8,0670.9,31.3
2021-09-03T13:28:00Z,00000200,00000000,-000.08,0000.40,-000.20,-000.25,0000.13,-000.25,0000.16,-000.17,-000.17,20.8,26.9,07.1,04.9,0670.8,31.3
2021-09-03T13:29:00Z,00000200,00000000,0000.26,0000.53,0000.02,-000.93,0000.17,0000.26,-000.09,-000.02,-000.07,20.8,26.9,07.2,05.0,0670.8,31.2
2021-09-03T13:30:00Z,00000200,00000000,0000.34,0000.23,0000.25,0000.42,0000.09,0000.31,-000.10,0000.35,0000.24,20.8,26.9,07.1,04.9,0670.7,31.2
2021-09-03T13:31:00Z,00000200,00000000,-000.11,-000.00,-000.24,-000.42,0000.15,-000.38,0000.00,-000.33,-000.26,20.8,26.9,07.1,04.9,0670.8,31.2
2021-09-03T13:32:00Z,00000200,00000000,0000.90,0000.26,0000.37,-000.24,0000.14,0000.08,-000.05,0000.11,0000.03,20.8,26.9,07.1,04.9,0670.8,31.2
2021-09-03T13:33:00Z,00000200,00000000,0000.48,0000.15,0000.12,-000.67,0000.07,0000.32,0000.15,0000.02,0000.28,20.8,26.9,07.1,04.9,0670.8,31.2
2021-09-03T13:34:00Z,00000200,00000000,-000.24,0000.05,0000.00,0000.37,0000.41,0000.07,0000.37,-000.23,-000.09,20.8,26.9,07.2,05.0,0670.7,31.2
2021-09-03T13:35:00Z,00000200,00000000,0000.33,0000.23,-000.26,0000.38,0000.13,-000.04,-000.08,0000.49,0000.05,20.8,26.9,07.2,05.0,0670.8,31.2
2021-09-03T13:36:00Z,00000200,00000000,0000.73,0000.18,0000.31,0000.07,0000.21,0000.14,-000.13,0000.25,-000.09,20.8,26.9,07.2,05.0,0670.7,31.2
2021-09-03T13:37:00Z,00000200,00000000,0000.51,0000.25,0000.08,0000.05,-000.00,0000.06,-000.24,-000.35,0000.05,20.8,26.9,07.2,05.0,0670.7,31.2
2021-09-03T13:38:00Z,00000200,00000000,0000.71,0000.11,0000.40,-000.52,0000.12,0000.27,0000.31,0000.11,0000.28,20.8,26.9,07.1,04.9,0670.7,31.2
2021-09-03T13:39:00Z,00000200,00000000,-000.02,0000.45,0000.34,-000.12,0000.17,0000.22,-000.05,-000.17,0000.01,20.8,26.9,07.1,05.0,0670.7,31.2
2021-09-03T13:40:00Z,00000200,00000000,0000.26,0000.04,0000.11,0000.35,0000.09,0000.20,-000.06,0000.18,-000.06,20.8,26.9,07.1,04.9,0670.7,31.2
2021-09-03T13:41:00Z,00000200,00000000,-000.09,0000.26,0000.27,0000.44,0000.12,-000.01,-000.11,0000.17,-000.13,20.8,26.9,07.1,04.9,0670.7,31.2
2021-09-03T13:42:00Z,00000200,00000000,0000.95,-000.04,0000.43,0000.22,-000.13,0000.13,0000.38,-000.26,-000.11,20.8,26.8,07.2,05.0,0670.7,31.2
2021-09-03T13:43:00Z,00000200,00000000,0000.34,0000.04,-000.04,-000.77,0000.05,0000.06,0000.11,0000.21,0000.51,20.8,26.8,07.2,05.0,0670.7,31.2
2021-09-03T13:44:00Z,00000200,00000000,0000.25,0000.15,0000.20,0000.44,0000.12,0000.42,0000.09,0000.20,-000.66,20.8,26.9,07.3,05.0,0670.7,31.2
2021-09-03T13:45:00Z,00000200,00000000,0000.93,0000.47,-000.41,0000.12,0000.13,-000.27,-000.12,-000.07,0000.55,20.8,26.8,07.3,05.1,0670.6,31.2
2021-09-03T13:46:00Z,00000200,00000000,0000.15,0000.08,0000.54,-000.42,0000.00,0000.22,0000.02,-000.00,-000.11,20.8,26.8,07.3,05.1,0670.6,31.2
2021-09-03T13:47:00Z,00000200,00000000,0000.47,0000.32,0000.27,-000.41,0000.06,-000.01,0000.04,-000.13,0000.11,20.8,26.9,07.4,05.1,0670.6,31.2
2021-09-03T13:48:00Z,00000200,00000000,0000.73,0000.04,0000.55,-000.42,0000.11,0000.17,-000.09,0000.27,0000.05,20.8,26.9,07.3,05.1,0670.6,31.2
2021-09-03T13:49:00Z,00000200,00000000,0001.29,0000.30,0000.18,-000.40,0000.07,0000.02,0000.38,0000.00,-000.13,20.8,26.8,07.4,05.1,0670.6,31.2
2021-09-03T13:50:00Z,00000200,00000000,0000.64,0000.25,0000.23,-000.01,-000.04,0000.15,-000.25,-000.09,-000.05,20.8,26.9,07.4,05.1,0670.5,31.2
2021-09-03T13:51:00Z,00000200,00000000,0000.26,0000.36,0000.24,-000.37,-000.03,0000.13,0000.30,-000.10,0000.18,20.8,26.9,07.4,05.1,0670.6,31.2
2021-09-03T13:52:00Z,00000200,00000000,-000.04,0000.07,-000.02,0000.03,-000.08,-000.09,-000.37,0000.30,0000.09,20.8,26.8,07.4,05.1,0670.6,31.2
2021-09-03T13:53:00Z,00000200,00000000,0000.28,0000.37,0000.11,-000.05,0000.25,0000.13,0000.11,-000.05,0000.12,20.8,26.9,07.4,05.1,0670.5,31.2
2021-09-03T13:54:00Z,00000200,00000000,-000.10,0000.30,0000.11,0000.07,0000.08,0000.26,0000.20,0000.32,-000.17,20.8,26.8,07.4,05.1,0670.5,31.2
2021-09-03T13:55:00Z,00000200,00000000,-000.46,0000.31,0000.29,0000.18,-000.16,-000.15,-000.08,-000.09,0000.25,20.8,26.8,07.3,05.1,0670.5,31.2
2021-09-03T13:56:00Z,00000200,00000000,-000.13,-000.07,0000.29,-000.69,0000.19,-000.28,0000.13,-000.11,-000.13,20.8,26.8,07.4,05.1,0670.5,31.2
2021-09-03T13:57:00Z,00000200,40000000,,,,,,,-000.40,-000.34,-000.37,20.8,26.9,07.2,05.0,0670.6,31.2
2021-09-03T13:58:00Z,00000200,60000000,,,,,,,0000.25,0000.14,0000.57,20.6,26.9,07.3,05.0,0669.5,31.2
2021-09-03T13:59:00Z,00000200,20000000,,,,,,,-000.00,0000.08,-000.12,20.6,27.0,07.4,05.0,0669.5,31.2
